OTTER BROOK LAKE : From 09/05/2020 05:00 to 09/20/2020 03:00

Date STAGE [FT] FLOW [CFS] LAKE ELEVATION [FT] PRECIPITATION INCREMENT [IN] AIR TEMPERATURE [DEGF]
09/19/2020 04:00 5.60 -- 19.04 -- 36.7
09/19/2020 03:00 5.60 -- 19.04 -- 35.6
09/19/2020 02:00 5.60 -- 19.04 -- 36.2
09/19/2020 01:00 5.60 -- 19.04 -- 36.5
09/19/2020 00:00 5.60 -- 19.04 -- 36.9
09/18/2020 23:00 5.61 -- 19.04 -- 36.4
09/18/2020 22:00 5.61 -- 19.04 -- 37.2
09/18/2020 21:00 5.61 -- 19.05 -- 39.7
09/18/2020 20:00 5.61 -- 19.04 -- 41.1
09/18/2020 19:00 5.61 2.8 19.04 -- 43.8
09/18/2020 18:00 5.61 2.8 19.04 -- 48.6
09/18/2020 17:00 5.62 2.9 19.04 -- 51.2
09/18/2020 16:00 5.62 2.9 19.05 -- 53.8
09/18/2020 15:00 5.62 2.9 19.05 -- 56.8
09/18/2020 14:00 5.62 2.9 19.05 -- 60.4
09/18/2020 13:00 5.62 2.9 19.04 -- 63.0
09/18/2020 12:00 5.63 3.1 19.07 -- 65.3
09/18/2020 11:00 5.63 3.1 19.05 -- 65.4
09/18/2020 10:00 5.63 3.1 19.05 -- 62.5
09/18/2020 09:00 5.63 3.1 19.06 -- 62.6
09/18/2020 08:00 5.63 3.1 19.06 -- 56.6
09/18/2020 07:00 5.63 3.1 19.06 -- 54.5
09/18/2020 06:00 5.63 3.1 19.06 -- 54.1
09/18/2020 05:00 5.63 3.1 19.06 -- 53.7
09/18/2020 04:00 5.63 3.1 19.06 -- 54.2
09/18/2020 03:00 5.63 3.1 19.06 -- 55.2
09/18/2020 02:00 5.63 3.1 19.05 -- 55.3
09/18/2020 01:00 5.63 3.1 19.05 -- 55.9
09/18/2020 00:00 5.63 3.1 19.05 -- 57.6
09/17/2020 23:00 5.63 3.1 19.05 -- 58.2
09/17/2020 22:00 5.63 3.1 19.05 -- 58.3
09/17/2020 21:00 5.63 3.1 19.05 -- 58.9
09/17/2020 20:00 5.63 3.1 19.05 -- 59.1
09/17/2020 19:00 5.63 3.1 19.05 -- 59.2
09/17/2020 18:00 5.63 3.1 19.05 -- 59.4
09/17/2020 17:00 5.63 3.1 19.05 -- 59.8
09/17/2020 16:00 5.64 3.2 19.05 -- 60.4
09/17/2020 15:00 5.64 3.2 19.06 -- 62.6
09/17/2020 14:00 5.64 3.2 19.06 -- 64.5
09/17/2020 13:00 5.64 3.2 19.06 -- 67.8
09/17/2020 12:00 5.64 3.2 19.06 -- 71.8
09/17/2020 11:00 5.64 3.2 19.06 -- 75.4
09/17/2020 10:00 5.64 3.2 19.06 -- 75.2
09/17/2020 09:00 5.64 3.2 19.06 -- 74.2
09/17/2020 08:00 -- -- 19.06 -- 69.0
09/17/2020 07:00 5.63 3.1 19.06 -- 68.6
09/17/2020 06:00 5.63 3.1 19.06 -- 62.9
09/17/2020 05:00 5.63 3.1 19.06 -- 57.8
09/17/2020 04:00 5.63 3.1 19.07 -- 52.4
09/17/2020 03:00 5.63 3.1 19.07 -- 49.5
09/17/2020 02:00 5.63 3.1 19.07 -- 49.0
09/17/2020 01:00 5.63 3.1 19.07 -- 48.9
09/17/2020 00:00 5.63 3.1 19.07 -- 50.1
09/16/2020 23:00 5.63 3.1 19.07 -- 51.2
09/16/2020 22:00 5.64 3.2 19.07 -- 52.3
09/16/2020 21:00 5.64 3.2 19.07 -- 54.0
09/16/2020 20:00 5.64 3.2 19.06 -- 56.3
09/16/2020 19:00 5.63 3.1 19.07 -- 55.3
09/16/2020 18:00 5.63 3.1 19.06 -- 56.4
09/16/2020 17:00 -- -- 19.07 -- 58.1
09/16/2020 16:00 -- -- 19.06 -- 60.8
09/16/2020 15:00 -- -- 19.06 -- 63.8
09/16/2020 14:00 -- -- 19.06 -- 68.8
09/16/2020 13:00 -- -- 19.07 -- 70.9
09/16/2020 12:00 5.64 3.2 19.06 -- 72.6
09/16/2020 11:00 5.63 3.1 19.07 -- 72.8
09/16/2020 10:00 -- -- 19.07 -- 71.4
09/16/2020 09:00 5.64 3.2 19.07 -- 70.5
09/16/2020 08:00 -- -- 19.08 -- 68.6
09/16/2020 07:00 -- -- 19.07 -- 61.2
09/16/2020 06:00 5.63 3.1 19.07 -- 58.9
09/16/2020 05:00 5.64 3.2 19.08 -- 50.9
09/16/2020 04:00 5.64 3.2 19.09 -- 43.3
09/16/2020 03:00 5.64 3.2 19.09 -- 40.6
09/16/2020 02:00 5.64 3.2 19.09 -- 41.6
09/16/2020 01:00 5.64 3.2 19.09 -- 41.2
09/16/2020 00:00 5.64 3.2 19.09 -- 42.8
09/15/2020 23:00 5.65 3.4 19.09 -- 43.2
09/15/2020 22:00 5.65 3.4 19.09 -- 44.0
09/15/2020 21:00 5.65 3.4 19.09 -- 44.7
09/15/2020 20:00 5.65 3.4 19.09 -- 45.6
09/15/2020 19:00 5.65 3.4 19.09 -- 47.0
09/15/2020 18:00 5.65 3.4 19.09 -- 47.7
09/15/2020 17:00 5.65 3.4 19.09 -- 49.6
09/15/2020 16:00 5.65 3.4 19.09 -- 50.1
09/15/2020 15:00 5.65 3.4 19.09 -- 54.2
09/15/2020 14:00 5.65 3.4 19.09 -- 60.5
09/15/2020 13:00 5.65 3.4 19.09 -- 63.6
09/15/2020 12:00 5.65 3.4 19.09 -- 65.9
09/15/2020 11:00 5.65 3.4 19.09 -- 65.8
09/15/2020 10:00 5.65 3.4 19.09 -- 63.6
09/15/2020 09:00 5.65 3.4 19.09 -- 62.4
09/15/2020 08:00 5.65 3.4 19.09 -- 61.7
09/15/2020 07:00 5.65 3.4 19.10 -- 60.2
09/15/2020 06:00 5.65 3.4 19.10 -- 54.8
09/15/2020 05:00 5.65 3.4 19.10 -- 47.8
09/15/2020 04:00 5.65 3.4 19.10 -- 41.4
09/15/2020 03:00 5.65 3.4 19.10 -- 39.6
09/15/2020 02:00 5.66 3.6 19.10 -- 38.8
09/15/2020 01:00 5.66 3.6 19.10 -- 40.4
09/15/2020 00:00 5.66 3.6 19.10 -- 41.6
09/14/2020 23:00 5.66 3.6 19.10 -- 43.3
09/14/2020 22:00 5.66 3.6 19.10 -- 43.3
09/14/2020 21:00 5.66 3.6 19.10 -- 45.3
09/14/2020 20:00 5.66 3.6 19.10 -- 49.2
09/14/2020 19:00 5.66 3.6 19.10 -- 47.9
09/14/2020 18:00 5.66 3.6 19.10 -- 53.0
09/14/2020 17:00 5.67 3.8 19.10 -- 54.0
09/14/2020 16:00 5.66 3.6 19.09 -- 56.6
09/14/2020 15:00 5.66 3.6 19.10 -- 60.3
09/14/2020 14:00 5.66 3.6 19.10 -- 63.9
09/14/2020 13:00 5.67 3.8 19.09 -- 66.9
09/14/2020 12:00 5.67 3.8 19.10 -- 70.1
09/14/2020 11:00 5.67 3.8 19.11 -- 73.2
09/14/2020 10:00 5.67 3.8 19.12 -- 72.5
09/14/2020 09:00 5.67 3.8 19.09 -- 72.3
09/14/2020 08:00 5.68 4.0 19.10 -- 72.6
09/14/2020 07:00 5.68 4.0 19.09 -- 69.1
09/14/2020 06:00 5.68 4.0 19.14 -- 68.6
09/14/2020 05:00 5.68 4.0 19.10 -- 65.8
09/14/2020 04:00 5.69 4.3 19.10 0.00 61.7
09/14/2020 03:00 5.68 4.0 19.11 0.00 60.1
09/14/2020 02:00 5.68 4.0 19.11 0.00 60.5
09/14/2020 01:00 5.69 4.3 19.10 0.00 60.5
09/14/2020 00:00 5.69 4.3 19.10 0.00 60.6
09/13/2020 23:00 5.69 4.3 19.10 0.00 62.0
09/13/2020 22:00 5.69 4.3 19.10 0.00 64.5
09/13/2020 21:00 5.69 4.3 19.10 0.00 63.8
09/13/2020 20:00 5.69 4.3 19.10 0.00 65.3
09/13/2020 19:00 5.69 4.3 19.10 0.00 66.3
09/13/2020 18:00 5.69 4.3 19.10 0.00 67.7
09/13/2020 17:00 5.69 4.3 19.10 0.00 67.2
09/13/2020 16:00 5.69 4.3 19.10 0.00 66.9
09/13/2020 15:00 5.69 4.3 19.10 0.00 68.9
09/13/2020 14:00 5.69 4.3 19.10 0.00 70.9
09/13/2020 13:00 5.68 4.0 19.10 0.00 72.0
09/13/2020 12:00 5.68 4.0 19.10 0.00 72.1
09/13/2020 11:00 5.68 4.0 19.10 0.00 74.3
09/13/2020 10:00 5.68 4.0 19.09 0.00 72.1
09/13/2020 09:00 5.69 4.3 19.10 0.00 73.6
09/13/2020 08:00 5.69 4.3 19.10 0.00 71.4
09/13/2020 07:00 5.68 4.0 19.10 0.00 66.4
09/13/2020 06:00 5.68 4.0 19.11 0.00 63.3
09/13/2020 05:00 5.69 4.3 19.11 0.00 58.0
09/13/2020 04:00 5.69 4.3 19.11 0.00 53.2
09/13/2020 03:00 5.69 4.3 19.12 0.00 50.6
09/13/2020 02:00 5.69 4.3 19.12 0.00 49.0
09/13/2020 01:00 5.69 4.3 19.12 0.00 46.9
09/13/2020 00:00 5.69 4.3 19.12 0.00 46.7
09/12/2020 23:00 5.69 4.3 19.12 0.00 47.1
09/12/2020 22:00 5.69 4.3 19.12 0.00 48.4
09/12/2020 21:00 5.69 4.3 19.12 0.00 49.3
09/12/2020 20:00 5.69 4.3 19.11 0.00 50.6
09/12/2020 19:00 5.69 4.3 19.11 0.00 51.2
09/12/2020 18:00 5.70 4.5 19.11 0.00 52.5
09/12/2020 17:00 5.70 4.5 19.11 0.00 54.9
09/12/2020 16:00 5.69 4.3 19.12 0.00 57.0
09/12/2020 15:00 5.69 4.3 19.11 0.00 60.3
09/12/2020 14:00 5.69 4.3 19.11 0.00 64.8
09/12/2020 13:00 5.69 4.3 19.11 0.00 68.4
09/12/2020 12:00 5.69 4.3 19.11 0.00 70.1
09/12/2020 11:00 5.69 4.3 19.12 0.00 70.2
09/12/2020 10:00 5.69 4.3 19.11 0.00 69.6
09/12/2020 09:00 5.69 4.3 19.12 0.00 68.0
09/12/2020 08:00 5.69 4.3 19.12 0.00 66.9
09/12/2020 07:00 5.69 4.3 19.12 0.00 64.5
09/12/2020 06:00 5.69 4.3 19.12 0.00 59.6
09/12/2020 05:00 5.69 4.3 19.12 0.00 52.1
09/12/2020 04:00 5.69 4.3 19.13 0.00 44.1
09/12/2020 03:00 5.69 4.3 19.13 0.00 42.6
09/12/2020 02:00 5.70 4.5 19.13 0.00 44.1
09/12/2020 01:00 5.70 4.5 19.13 0.00 44.6
09/12/2020 00:00 5.70 4.5 19.12 0.00 45.3
09/11/2020 23:00 5.70 4.5 19.12 0.00 46.1
09/11/2020 22:00 5.70 4.5 19.12 0.00 46.9
09/11/2020 21:00 5.70 4.5 19.12 0.00 47.6
09/11/2020 20:00 5.70 4.5 19.12 0.00 49.1
09/11/2020 19:00 5.70 4.5 19.11 0.00 49.8
09/11/2020 18:00 5.69 4.3 19.11 0.00 52.8
09/11/2020 17:00 5.69 4.3 19.11 0.00 54.2
09/11/2020 16:00 5.69 4.3 19.11 0.00 55.8
09/11/2020 15:00 5.69 4.3 19.10 0.00 59.7
09/11/2020 14:00 5.69 4.3 19.11 0.00 65.4
09/11/2020 13:00 5.69 4.3 19.10 0.00 67.7
09/11/2020 12:00 5.69 4.3 19.11 0.00 70.7
09/11/2020 11:00 5.69 4.3 19.10 0.00 71.2
09/11/2020 10:00 5.69 4.3 19.11 0.00 70.1
09/11/2020 09:00 5.69 4.3 19.10 0.00 70.1
09/11/2020 08:00 5.69 4.3 19.10 0.00 68.1
09/11/2020 07:00 5.69 4.3 19.09 0.00 67.2
09/11/2020 06:00 5.68 4.0 19.09 0.00 62.2
09/11/2020 05:00 5.68 4.0 19.08 0.00 60.6
09/11/2020 04:00 5.67 3.8 19.08 0.00 60.6
09/11/2020 03:00 5.67 3.8 19.08 0.00 61.2
09/11/2020 02:00 5.67 3.8 19.07 0.00 62.1
09/11/2020 01:00 5.67 3.8 19.06 0.00 63.5
09/11/2020 00:00 5.66 3.6 19.05 0.00 64.8
09/10/2020 23:00 5.65 3.4 19.04 0.00 65.1
09/10/2020 22:00 5.65 3.4 19.03 0.00 67.2
09/10/2020 21:00 5.64 3.2 19.02 0.00 69.8
09/10/2020 20:00 5.63 3.1 19.01 0.00 70.7
09/10/2020 19:00 5.62 2.9 19.00 0.00 70.8
09/10/2020 18:00 5.62 2.9 18.99 0.00 71.1
09/10/2020 17:00 -- -- 18.98 0.00 71.1
09/10/2020 16:00 -- -- 18.97 0.00 71.3
09/10/2020 15:00 -- -- 18.97 0.00 72.7
09/10/2020 14:00 -- -- 18.97 0.00 73.9
09/10/2020 13:00 -- -- 18.97 0.00 74.3
09/10/2020 12:00 -- -- 18.97 0.01 73.2
09/10/2020 11:00 -- -- 18.97 0.12 74.2
09/10/2020 10:00 -- -- 18.97 0.00 76.2
09/10/2020 09:00 -- -- 18.97 0.00 74.9
09/10/2020 08:00 -- -- 18.97 0.02 71.4
09/10/2020 07:00 -- -- 18.97 0.10 69.1
09/10/2020 06:00 -- -- 18.96 0.00 68.8
09/10/2020 05:00 5.59 2.5 18.96 0.00 65.8
09/10/2020 04:00 5.59 2.5 18.96 0.00 63.5
09/10/2020 03:00 5.59 2.5 18.96 0.00 62.4
09/10/2020 02:00 5.59 2.5 18.96 0.00 62.8
09/10/2020 01:00 5.59 2.5 18.96 0.00 62.9
09/10/2020 00:00 5.59 2.5 18.97 0.00 63.4
09/09/2020 23:00 5.60 2.6 18.97 0.00 63.6
09/09/2020 22:00 5.60 2.6 18.97 0.00 63.6
09/09/2020 21:00 5.60 2.6 18.97 0.00 64.3
09/09/2020 20:00 5.60 2.6 18.97 0.00 64.6
09/09/2020 19:00 5.60 2.6 18.97 0.00 65.2
09/09/2020 18:00 5.60 2.6 18.97 0.00 66.7
09/09/2020 17:00 5.60 2.6 18.97 0.00 67.7
09/09/2020 16:00 5.60 2.6 18.97 0.00 69.8
09/09/2020 15:00 5.60 2.6 18.97 0.00 72.3
09/09/2020 14:00 5.60 2.6 18.97 0.00 75.6
09/09/2020 13:00 5.59 2.5 18.97 0.00 79.8
09/09/2020 12:00 5.60 2.6 18.96 0.00 79.7
09/09/2020 11:00 5.60 2.6 18.97 0.00 79.6
09/09/2020 10:00 5.60 2.6 18.97 0.00 80.2
09/09/2020 09:00 5.60 2.6 18.97 0.00 80.5
09/09/2020 08:00 5.60 2.6 18.97 0.00 78.4
09/09/2020 07:00 5.60 2.6 18.97 0.00 73.7
09/09/2020 06:00 5.60 2.6 18.98 0.00 68.4
09/09/2020 05:00 5.60 2.6 18.98 0.00 65.4
09/09/2020 04:00 5.60 2.6 18.98 0.00 62.1
09/09/2020 03:00 5.60 2.6 18.98 0.00 59.6
09/09/2020 02:00 5.60 2.6 18.98 0.00 59.6
09/09/2020 01:00 5.60 2.6 18.98 0.00 60.6
09/09/2020 00:00 5.61 2.8 18.99 0.00 60.9
09/08/2020 23:00 5.61 2.8 18.98 0.00 61.9
09/08/2020 22:00 5.61 2.8 18.98 0.00 62.6
09/08/2020 21:00 5.61 2.8 18.98 0.00 62.9
09/08/2020 20:00 5.61 2.8 18.98 0.00 64.5
09/08/2020 19:00 5.61 2.8 18.98 0.00 65.5
09/08/2020 18:00 5.61 2.8 18.98 0.00 68.1
09/08/2020 17:00 5.61 2.8 18.99 0.00 69.8
09/08/2020 16:00 5.61 2.8 18.98 0.00 71.6
09/08/2020 15:00 5.61 2.8 18.98 0.00 73.5
09/08/2020 14:00 5.61 2.8 18.98 0.00 78.7
09/08/2020 13:00 5.61 2.8 18.98 0.00 83.3
09/08/2020 12:00 5.61 2.8 18.99 0.00 85.8
09/08/2020 11:00 5.61 2.8 18.99 0.00 85.3
09/08/2020 10:00 5.61 2.8 18.99 0.00 83.9
09/08/2020 09:00 5.61 2.8 18.99 0.00 81.4
09/08/2020 08:00 5.61 2.8 18.99 0.00 78.3
09/08/2020 07:00 5.61 2.8 18.99 0.00 75.2
09/08/2020 06:00 5.61 2.8 19.00 0.00 73.1
09/08/2020 05:00 5.61 2.8 19.00 0.00 69.6
09/08/2020 04:00 5.61 2.8 19.00 0.00 65.7
09/08/2020 03:00 5.61 2.8 19.00 0.00 63.7
09/08/2020 02:00 5.61 2.8 19.00 0.00 62.9
09/08/2020 01:00 5.61 2.8 19.00 0.00 63.1
09/08/2020 00:00 5.61 2.8 19.00 0.00 63.2
09/07/2020 23:00 5.62 2.9 19.00 0.00 65.5
09/07/2020 22:00 5.62 2.9 19.00 0.00 66.0
09/07/2020 21:00 5.62 2.9 19.00 0.00 67.1
09/07/2020 20:00 5.62 2.9 19.00 0.00 67.0
09/07/2020 19:00 5.62 2.9 19.00 0.00 65.8
09/07/2020 18:00 5.62 2.9 19.00 0.00 67.2
09/07/2020 17:00 5.62 2.9 19.00 0.00 68.8
09/07/2020 16:00 5.62 2.9 19.00 0.00 69.0
09/07/2020 15:00 5.62 2.9 19.00 0.00 71.2
09/07/2020 14:00 5.62 2.9 19.00 0.00 76.4
09/07/2020 13:00 5.61 2.8 19.00 0.00 77.5
09/07/2020 12:00 5.61 2.8 19.00 0.00 78.0
09/07/2020 11:00 5.62 2.9 19.01 0.00 78.1
09/07/2020 10:00 5.61 2.8 19.01 0.00 80.1
09/07/2020 09:00 5.62 2.9 19.01 0.00 78.0
09/07/2020 08:00 5.62 2.9 19.01 0.00 75.8
09/07/2020 07:00 5.62 2.9 19.01 0.00 74.6
09/07/2020 06:00 5.62 2.9 19.01 0.00 73.8
09/07/2020 05:00 5.62 2.9 19.02 0.00 70.2
09/07/2020 04:00 5.62 2.9 19.02 0.00 66.9
09/07/2020 03:00 5.62 2.9 19.02 0.00 63.0
09/07/2020 02:00 5.63 3.1 19.02 0.00 61.5
09/07/2020 01:00 5.63 3.1 19.03 0.00 60.0
09/07/2020 00:00 5.63 3.1 19.03 0.00 58.6
09/06/2020 23:00 5.63 3.1 19.03 0.00 58.0
09/06/2020 22:00 5.63 3.1 19.03 0.00 57.4
09/06/2020 21:00 5.63 3.1 19.03 0.00 57.3
09/06/2020 20:00 5.64 3.2 19.03 0.00 57.3
09/06/2020 19:00 5.64 3.2 19.03 0.00 58.2
09/06/2020 18:00 5.64 3.2 19.03 0.00 59.6
09/06/2020 17:00 5.64 3.2 19.04 0.00 61.2
09/06/2020 16:00 5.64 3.2 19.04 0.00 62.1
09/06/2020 15:00 5.64 3.2 19.03 0.00 66.6
09/06/2020 14:00 5.64 3.2 19.03 0.00 73.2
09/06/2020 13:00 5.64 3.2 19.03 0.00 76.3
09/06/2020 12:00 5.64 3.2 19.04 0.00 77.4
09/06/2020 11:00 5.64 3.2 19.04 0.00 78.2
09/06/2020 10:00 -- -- 19.04 0.00 78.3
09/06/2020 09:00 5.65 3.4 19.05 0.00 77.2
09/06/2020 08:00 5.65 3.4 19.05 0.00 74.7
09/06/2020 07:00 5.65 3.4 19.05 0.00 72.7
09/06/2020 06:00 5.65 3.4 19.05 0.00 69.9
09/06/2020 05:00 5.64 3.2 19.06 0.00 65.8
09/06/2020 04:00 5.64 3.2 19.06 0.00 58.6
09/06/2020 03:00 5.64 3.2 19.06 0.00 57.4
09/06/2020 02:00 5.65 3.4 19.06 0.00 57.2
09/06/2020 01:00 5.65 3.4 19.06 0.00 57.2
09/06/2020 00:00 5.65 3.4 19.06 0.00 57.0
09/05/2020 23:00 5.65 3.4 19.06 0.00 56.9
09/05/2020 22:00 5.65 3.4 19.06 0.00 57.1
09/05/2020 21:00 -- -- -- -- --
09/05/2020 20:00 -- -- -- -- --
09/05/2020 19:00 -- -- -- -- --
09/05/2020 18:00 -- -- -- -- --
09/05/2020 17:00 -- -- -- -- --
09/05/2020 16:00 -- -- -- -- --
09/05/2020 15:00 -- -- -- -- --
09/05/2020 14:00 -- -- -- -- --
09/05/2020 13:00 -- -- -- -- --
09/05/2020 12:00 -- -- -- -- --
09/05/2020 11:00 -- -- -- -- --
09/05/2020 10:00 -- -- -- -- --
09/05/2020 09:00 -- -- -- -- --
09/05/2020 08:00 -- -- -- -- --
09/05/2020 07:00 -- -- -- -- --
09/05/2020 06:00 -- -- -- -- --
09/05/2020 05:00 -- -- -- -- --